Change the Weather History Date:

Monday, June 16, 2014

  Actual Average Record
Temperature  
Mean Temperature 80 °F -  
Max Temperature 95 °F 83 °F 95 °F (2014)
Min Temperature 66 °F 58 °F 48 °F (1998)
Cooling Degree Days 16    
Growing Degree Days 30 (Base 50)    
Moisture  
Dew Point 66 °F    
Average Humidity 63    
Maximum Humidity 88    
Minimum Humidity 34    
Precipitation  
Precipitation 0.00 in - - ()
Sea Level Pressure  
Sea Level Pressure 29.73 in    
Wind  
Wind Speed 19 mph (SSE)    
Max Wind Speed 37 mph    
Max Gust Speed 47 mph    
Visibility 10 miles    
Events      
Averages and records for this station are not official NWS values.
T = Trace of Precipitation, MM = Missing Value Source: NWS Daily Summary

Daily Weather History Graph

Daily Weather History Graph

Search for Another Location

Airport or City:

Trip Planner

Search our weather history database for the weather conditions in past years. The results will help you decide how hot, cold, wet, or windy it might be!

Date:

Astronomy

Jun. 16, 2014 Rise Set
Actual Time 6:11 AM CDT 9:04 PM CDT
Civil Twilight 5:39 AM CDT 9:36 PM CDT
Nautical Twilight 4:59 AM CDT 10:16 PM CDT
Astronomical Twilight 4:12 AM CDT 11:03 PM CDT
Moon 11:59 PM CDT (6/16) 10:15 AM CDT (6/16)
Length of Visible Light 15h 56m
Length of Day
14h 52m
Waning Gibbous, 83% of the Moon is Illuminated
Jun 16
Waning Gibbous
Jun 19
Last Quarter
Jun 27
New
Jul 5
First Quarter
Jul 12
Full

Hourly Weather History & Observations

Time (CDT) Temp. Heat Index Dew Point Humidity Pressure Visibility Wind Dir Wind Speed Gust Speed Precip Events Conditions
12:15 AM 66.2 °F - 60.8 °F 83% 29.91 in 10.0 mi East 8.1 mph - N/A   Clear
12:35 AM 66.2 °F - 62.6 °F 88% 29.91 in 10.0 mi East 9.2 mph - N/A   Clear
12:55 AM 66.2 °F - 62.6 °F 88% 29.91 in 10.0 mi East 10.4 mph - N/A   Clear
1:15 AM 66.2 °F - 62.6 °F 88% 29.90 in 10.0 mi East 8.1 mph - N/A   Mostly Cloudy
1:35 AM 66.2 °F - 62.6 °F 88% 29.89 in 10.0 mi East 8.1 mph - N/A   Scattered Clouds
1:55 AM 68.0 °F - 64.4 °F 88% 29.88 in 10.0 mi ESE 10.4 mph - N/A   Clear
2:15 AM 68.0 °F - 64.4 °F 88% 29.87 in 8.0 mi ESE 9.2 mph - N/A   Mostly Cloudy
2:35 AM 69.8 °F - 66.2 °F 88% 29.86 in 8.0 mi ESE 13.8 mph - N/A   Overcast
2:55 AM 69.8 °F - 66.2 °F 88% 29.85 in 8.0 mi ESE 13.8 mph - N/A   Overcast
3:15 AM 69.8 °F - 66.2 °F 88% 29.84 in 7.0 mi ESE 13.8 mph - N/A   Overcast
3:35 AM 69.8 °F - 66.2 °F 88% 29.83 in 7.0 mi SE 16.1 mph 19.6 mph N/A   Mostly Cloudy
3:55 AM 71.6 °F - 66.2 °F 83% 29.83 in 8.0 mi SE 15.0 mph - N/A   Partly Cloudy
4:15 AM 71.6 °F - 66.2 °F 83% 29.83 in 10.0 mi SSE 19.6 mph 23.0 mph N/A   Clear
4:35 AM 71.6 °F - 68.0 °F 88% 29.83 in 10.0 mi SSE 17.3 mph - N/A   Clear
4:55 AM 71.6 °F - 66.2 °F 83% 29.83 in 10.0 mi SSE 17.3 mph 25.3 mph N/A   Clear
5:15 AM 71.6 °F - 66.2 °F 83% 29.82 in 10.0 mi SSE 15.0 mph - N/A   Partly Cloudy
5:35 AM 71.6 °F - 66.2 °F 83% 29.82 in 10.0 mi SSE 16.1 mph 23.0 mph N/A   Scattered Clouds
5:55 AM 71.6 °F - 66.2 °F 83% 29.82 in 10.0 mi SSE 13.8 mph - N/A   Mostly Cloudy
6:15 AM 71.6 °F - 66.2 °F 83% 29.82 in 10.0 mi SSE 13.8 mph 19.6 mph N/A   Partly Cloudy
6:35 AM 71.6 °F - 66.2 °F 83% 29.82 in 10.0 mi SSE 12.7 mph - N/A   Clear
6:55 AM 71.6 °F - 66.2 °F 83% 29.82 in 10.0 mi SSE 15.0 mph - N/A   Clear
7:15 AM 71.6 °F - 66.2 °F 83% 29.81 in 10.0 mi SSE 17.3 mph - N/A   Clear
7:35 AM 71.6 °F - 66.2 °F 83% 29.81 in 10.0 mi SSE 19.6 mph 25.3 mph N/A   Clear
7:55 AM 73.4 °F - 68.0 °F 83% 29.80 in 10.0 mi SSE 21.9 mph 27.6 mph N/A   Clear
8:15 AM 73.4 °F - 66.2 °F 78% 29.80 in 10.0 mi SSE 23.0 mph 31.1 mph N/A   Clear
8:35 AM 75.2 °F - 66.2 °F 73% 29.79 in 10.0 mi SSE 23.0 mph 33.4 mph N/A   Clear
8:55 AM 77.0 °F - 66.2 °F 69% 29.79 in 10.0 mi SSE 27.6 mph 32.2 mph N/A   Clear
9:15 AM 77.0 °F - 68.0 °F 74% 29.78 in 10.0 mi SSE 26.5 mph 31.1 mph N/A   Clear
9:35 AM 78.8 °F - 68.0 °F 69% 29.77 in 10.0 mi SSE 25.3 mph 32.2 mph N/A   Clear
9:55 AM 78.8 °F - 68.0 °F 69% 29.76 in 10.0 mi SSE 26.5 mph 34.5 mph N/A   Clear
10:35 AM 80.6 °F 83.2 °F 68.0 °F 65% 29.75 in 10.0 mi South 24.2 mph 32.2 mph N/A   Clear
10:55 AM 82.4 °F 85.4 °F 68.0 °F 62% 29.75 in 10.0 mi South 28.8 mph 38.0 mph N/A   Scattered Clouds
11:15 AM 84.2 °F 88.4 °F 69.8 °F 62% 29.73 in 10.0 mi South 27.6 mph 34.5 mph N/A   Mostly Cloudy
11:35 AM 82.4 °F 85.4 °F 68.0 °F 62% 29.73 in 10.0 mi South 29.9 mph 39.1 mph N/A   Mostly Cloudy
11:55 AM 84.2 °F 88.4 °F 69.8 °F 62% 29.73 in 10.0 mi South 26.5 mph 34.5 mph N/A   Scattered Clouds
12:15 PM 86.0 °F 89.4 °F 68.0 °F 55% 29.72 in 10.0 mi South 27.6 mph 36.8 mph N/A   Scattered Clouds
12:35 PM 86.0 °F 89.4 °F 68.0 °F 55% 29.72 in 10.0 mi South 23.0 mph 36.8 mph N/A   Partly Cloudy
12:55 PM 87.8 °F 92.6 °F 69.8 °F 55% 29.72 in 10.0 mi South 32.2 mph 38.0 mph N/A   Scattered Clouds
1:15 PM 87.8 °F 92.6 °F 69.8 °F 55% 29.71 in 10.0 mi South 25.3 mph 36.8 mph N/A   Partly Cloudy
1:35 PM 87.8 °F 92.6 °F 69.8 °F 55% 29.70 in 10.0 mi South 27.6 mph 40.3 mph N/A   Partly Cloudy
1:55 PM 89.6 °F 93.4 °F 68.0 °F 49% 29.69 in 10.0 mi South 33.4 mph 38.0 mph N/A   Partly Cloudy
2:15 PM 89.6 °F 93.4 °F 68.0 °F 49% 29.69 in 10.0 mi South 25.3 mph 40.3 mph N/A   Clear
2:35 PM 91.4 °F 95.4 °F 68.0 °F 46% 29.68 in 10.0 mi South 23.0 mph 38.0 mph N/A   Partly Cloudy
2:55 PM 91.4 °F 95.4 °F 68.0 °F 46% 29.66 in 10.0 mi South 25.3 mph 41.4 mph N/A   Clear
3:35 PM 93.2 °F 97.7 °F 68.0 °F 44% 29.64 in 10.0 mi South 34.5 mph 41.4 mph N/A   Clear
3:55 PM 93.2 °F 96.2 °F 66.2 °F 41% 29.63 in 10.0 mi South 31.1 mph 42.6 mph N/A   Clear
4:15 PM 93.2 °F 94.9 °F 64.4 °F 38% 29.62 in 10.0 mi South 36.8 mph 43.7 mph N/A   Clear
4:35 PM 93.2 °F 94.9 °F 64.4 °F 38% 29.61 in 10.0 mi South 33.4 mph 46.0 mph N/A   Clear
4:55 PM 93.2 °F 96.2 °F 66.2 °F 41% 29.61 in 10.0 mi South 32.2 mph 46.0 mph N/A   Clear
5:15 PM 95.0 °F 97.0 °F 64.4 °F 36% 29.60 in 10.0 mi South 33.4 mph 47.2 mph N/A   Clear
5:35 PM 93.2 °F 94.1 °F 62.6 °F 36% 29.60 in 10.0 mi South 32.2 mph 41.4 mph N/A   Clear
5:55 PM 95.0 °F 96.0 °F 62.6 °F 34% 29.60 in 10.0 mi South 34.5 mph 41.4 mph N/A   Clear
6:15 PM 93.2 °F 94.1 °F 62.6 °F 36% 29.60 in 10.0 mi South 31.1 mph 41.4 mph N/A   Clear
6:35 PM 93.2 °F 94.1 °F 62.6 °F 36% 29.60 in 10.0 mi South 32.2 mph 46.0 mph N/A   Clear
6:55 PM 93.2 °F 94.1 °F 62.6 °F 36% 29.60 in 10.0 mi South 26.5 mph 36.8 mph N/A   Clear
7:15 PM 93.2 °F 94.1 °F 62.6 °F 36% 29.61 in 10.0 mi South 28.8 mph 40.3 mph N/A   Clear
7:35 PM 91.4 °F 92.1 °F 62.6 °F 38% 29.61 in 10.0 mi South 25.3 mph 36.8 mph N/A   Clear
7:55 PM 91.4 °F 93.2 °F 64.4 °F 41% 29.62 in 10.0 mi South 21.9 mph 29.9 mph N/A   Clear
8:15 PM 89.6 °F 90.1 °F 62.6 °F 40% 29.62 in 10.0 mi South 25.3 mph 35.7 mph N/A   Clear
8:35 PM 87.8 °F 89.4 °F 64.4 °F 46% 29.62 in 10.0 mi South 20.7 mph 27.6 mph N/A   Clear
8:55 PM 87.8 °F 89.4 °F 64.4 °F 46% 29.63 in 10.0 mi South 24.2 mph 28.8 mph N/A   Clear
9:15 PM 86.0 °F 87.3 °F 64.4 °F 48% 29.63 in 10.0 mi South 23.0 mph 28.8 mph N/A   Clear
9:35 PM 84.2 °F 86.6 °F 66.2 °F 55% 29.64 in 10.0 mi South 21.9 mph 29.9 mph N/A   Clear
9:55 PM 84.2 °F 86.6 °F 66.2 °F 55% 29.64 in 10.0 mi South 21.9 mph 29.9 mph N/A   Clear
10:15 PM 84.2 °F 86.6 °F 66.2 °F 55% 29.64 in 10.0 mi South 26.5 mph 34.5 mph N/A   Clear
10:35 PM 84.2 °F 86.6 °F 66.2 °F 55% 29.64 in 10.0 mi South 26.5 mph 35.7 mph N/A   Clear
10:55 PM 82.4 °F 83.9 °F 64.4 °F 54% 29.64 in 10.0 mi South 29.9 mph 36.8 mph N/A   Clear
11:15 PM 82.4 °F 83.9 °F 64.4 °F 54% 29.64 in 10.0 mi South 27.6 mph 38.0 mph N/A   Clear
11:35 PM 82.4 °F 83.9 °F 64.4 °F 54% 29.64 in 10.0 mi South 29.9 mph 43.7 mph N/A   Clear
11:55 PM 82.4 °F 83.9 °F 64.4 °F 54% 29.63 in 10.0 mi South 33.4 mph 41.4 mph N/A   Clear